Regional Weather Roundup
Issued by NWS

Home | Current Version | Previous Version | Graphics & Text | Print | Product List | Glossary On
Versions: 1 2 3 4 5 6 7 8 9 10 11 12 13 14 15 16 17 18 19 20 21 22 23 24 25 26 27 28 29 30 31 32 33 34 35 36 37 38 39 40 41 42 43 44 45 46 47 48 49 50
000
ASUS43 KIND 311209
RWRIN

WEATHER ROUNDUP FOR INDIANA
NATIONAL WEATHER SERVICE INDIANAPOLIS IN
700 AM EST SAT JAN 31 2015

NOTE: "FAIR" INDICATES FEW OR NO CLOUDS BELOW 12,000 FEET WITH NO
SIGNIFICANT WEATHER AND/OR OBSTRUCTIONS TO VISIBILITY.

* - STATION DOES NOT REPORT WEATHER SUCH AS PRECIPITATION OR FOG.

+ - STATION NOT QUALITY CONTROLLED BY THE NATIONAL WEATHER SERVICE.
    USE DATA WITH CAUTION...ESPECIALLY DEWPOINT AND RELATIVE
    HUMIDITY OBSERVATIONS.

INZ001>003-010>013-019-020-311300-
NORTHWEST INDIANA

CITY           SKY/WX    TMP DP  RH WIND       PRES   REMARKS
GARY /AIRPORT/ PTCLDY    28  19  69 VRB3      30.28S
KNOX *+        PTCLDY    21  10  63 S6        30.29R WCI  14
LA PORTE +     CLEAR     23  19  86 S3        30.28S
6HR MIN TEMP:  16; 6HR MAX TEMP:  23;

MICHIGAN CITY+ CLEAR     25  16  68 S8        30.27F WCI  16
MONTICELLO +   PTCLDY    22  18  84 S7        30.30F WCI  14
6HR MIN TEMP:  20; 6HR MAX TEMP:  23;

RENSSELAER +   PTCLDY    27  23  86 S8        30.29F WCI  18
VALPARAISO     PTCLDY    23  18  81 S6        30.28S WCI  16
6HR MIN TEMP:  17; 6HR MAX TEMP:  23;


$$

LMZ046-743>745-311300-
SOUTHERN LAKE MICHIGAN

STATION/POSITION TIME  TEMP WIND        PRES
                       AIR  DIR/SP/G
                 (UTC) (F)  (DEG/KT/KT) (MB)
MICHIGAN CITY    1200   24  150/ 10/ 14   N/A

$$

INZ004-005-014>016-021>024-311300-
NORTH CENTRAL INDIANA

CITY           SKY/WX    TMP DP  RH WIND       PRES   REMARKS
GOSHEN         MOCLDY    21  16  81 SW8       30.28F WCI  11
6HR MIN TEMP:  16; 6HR MAX TEMP:  22;

LOGANSPORT +   CLOUDY    23  19  86 S6        30.32S WCI  16
PERU/GRISSOM   CLOUDY    22  18  83 S8        30.30F WCI  12
6HR MIN TEMP:  16; 6HR MAX TEMP:  22;

ROCHESTER +    MOCLDY    27  21  80 S5        30.30F WCI  21
SOUTH BEND     CLEAR     21  16  81 SW8       30.27F WCI  11
6HR MIN TEMP:  15; 6HR MAX TEMP:  21;

WARSAW +       PTCLDY    21  18  86 S3        30.29F

$$

INZ006>009-017-018-025>027-311300-
NORTHEAST INDIANA

CITY           SKY/WX    TMP DP  RH WIND       PRES   REMARKS
ANGOLA *+      CLOUDY    16  12  86 CALM      30.27S
AUBURN +       CLOUDY    19  18  93 S3        30.30F
FORT WAYNE     MOCLDY    21  17  84 SW8       30.31F WCI  11
6HR MIN TEMP:  16; 6HR MAX TEMP:  21;

HUNTINGTON +   CLOUDY    21  13  73 SW3       30.31S
6HR MIN TEMP:  14; 6HR MAX TEMP:  21;


$$

INZ028-029-035-036-043>045-051>053-311300-
WEST CENTRAL INDIANA

CITY           SKY/WX    TMP DP  RH WIND       PRES   REMARKS
GREENCASTLE +  CLEAR     18  12  79 CALM      30.34S
LAFAYETTE      CLEAR     20  16  84 CALM      30.33S
6HR MIN TEMP:  18; 6HR MAX TEMP:  21;

TERRE HAUTE    CLEAR     21  17  84 CALM      30.36R
6HR MIN TEMP:  18; 6HR MAX TEMP:  22;


$$

INZ030>032-037>040-046>048-054>057-064-065-311300-
CENTRAL INDIANA

CITY           SKY/WX    TMP DP  RH WIND       PRES   REMARKS
CP ATTERBURY + CLEAR     18  14  86 CALM      30.37R
FRANKFORT +    FAIR      22  18  85 S6        30.33S WCI  15
6HR MIN TEMP:  18; 6HR MAX TEMP:  22;

GREENWOOD *+   FAIR      19  14  79 CALM      30.35R
INDIANAPOLIS   PTCLDY    18  14  84 S3        30.34R
6HR MIN TEMP:  16; 6HR MAX TEMP:  20;

-EAGLE CREEK   CLEAR     18  14  84 CALM      30.33S
6HR MIN TEMP:  16; 6HR MAX TEMP:  20;

KOKOMO *+      PTCLDY    21  16  79 S7        30.32S WCI  13
6HR MIN TEMP:  19; 6HR MAX TEMP:  23;

MARION +       CLOUDY    21  17  84 S6        30.33R WCI  14
MT COMFORT *+  CLEAR     19  12  73 S5        30.34S WCI  13
SHELBYVILLE    CLEAR     21  15  78 S8        30.34R WCI  11
6HR MIN TEMP:  20; 6HR MAX TEMP:  23;

ZIONSVILLE +   CLEAR     19  14  81 CALM      30.33S
6HR MIN TEMP:  18; 6HR MAX TEMP:  20;


$$

INZ033-034-041-042-049-050-058-059-311300-
EAST CENTRAL INDIANA

CITY           SKY/WX    TMP DP  RH WIND       PRES   REMARKS
MUNCIE         CLOUDY    21  15  78 S6        30.32S WCI  13
6HR MIN TEMP:  19; 6HR MAX TEMP:  22;


$$

INZ060-061-067>069-081>083-085>088-311300-
SOUTHWEST INDIANA

CITY           SKY/WX    TMP DP  RH WIND       PRES   REMARKS
EVANSVILLE     PTCLDY    25  21  85 CALM      30.38F
6HR MIN TEMP:  24; 6HR MAX TEMP:  26;

HUNTINGBURG *+ MOCLDY    21  18  86 S3        30.37S
6HR MIN TEMP:  19; 6HR MAX TEMP:  23;

WASHINGTON +   MOCLDY    25  19  78 S6        30.36S WCI  18
6HR MIN TEMP:  22; 6HR MAX TEMP:  26;


$$

INZ062-063-066-070>080-084-089>092-311300-
SOUTH CENTRAL AND SOUTHEAST INDIANA

CITY           SKY/WX    TMP DP  RH WIND       PRES   REMARKS
BLOOMINGTON    CLEAR     17  14  88 CALM      30.35R
6HR MIN TEMP:  17; 6HR MAX TEMP:  20;

NORTH VERNON + CLEAR     21  19  93 CALM      30.36S
SEYMOUR +      CLEAR     19  16  86 CALM      30.37R

$$



USA.gov is the U.S. government's official web portal to all federal, state and local government web resources and services.